Temp
12 12 12 12 13 15 16 17 18 18 20 22 24 24 25 25 25 24 23 30 30 28 27 26 25 26 25 23 24 25 24 25 29 29 29 30 29 28 28 25 25 26 23 23 22
11 12 12 12 12 14 16 16 17 18 19 22 24 24 25 25 24 23 30 30 29 27 27 27 26 26 24 24 23 24 24 28 29 30 30 29 29 28 26 25 23 23 22 22 22
12 12 11 12 12 13 15 16 17 19 20 22 24 24 25 24 22 28 29 29 28 27 27 27 26 24 25 25 24 25 26 27 28 29 31 29 28 27 25 24 23 22 22 22 20
11 11 11 12 13 13 14 15 17 18 21 22 24 24 25 22 30 24 31 29 28 28 28 26 25 24 24 25 26 27 28 27 29 30 30 29 29 26 26 25 24 23 23 22 19
11 11 11 12 13 14 14 16 17 18 21 23 24 24 23 25 27 25 29 29 29 29 28 26 26 25 24 25 27 27 27 28 28 30 29 29 27 26 24 24 24 23 23 22 22
11 11 11 11 13 15 15 16 18 20 21 23 23 24 22 29 27 27 30 29 29 29 27 27 26 25 25 25 26 27 26 27 27 28 29 27 26 26 24 24 24 23 22 22 22
10 11 11 12 14 17 19 19 19 21 22 23 23 22 23 29 29 27 29 29 28 28 27 25 25 25 25 26 28 26 25 27 27 28 28 27 26 24 24 24 23 23 22 23 23
11 10 11 16 19 21 20 20 21 22 23 23 22 21 25 29 28 28 29 28 27 27 26 25 25 23 24 24 27 26 25 25 27 27 28 26 24 24 24 24 23 23 23 24 23
11 12 15 19 22 21 21 21 22 23 23 22 21 21 27 28 27 28 28 27 26 26 24 25 25 24 25 25 25 25 25 25 27 27 27 26 24 25 25 24 23 23 22 24 23
12 14 19 22 22 22 22 22 22 22 21 21 20 23 25 27 30 30 28 27 26 26 26 25 23 23 23 24 26 27 27 27 26 27 28 26 25 25 25 25 24 23 23 23 24
15 19 22 22 21 21 20 21 20 20 20 24 25 25 28 31 32 30 30 28 26 26 26 24 24 24 25 26 29 28 27 27 27 27 27 26 26 26 26 26 25 24 23 24 25
19 20 23 23 22 22 21 20 24 26 24 22 24 24 26 29 30 31 31 29 28 27 25 25 24 27 28 29 30 28 27 28 27 26 26 27 26 27 27 26 26 25 25 25 26
20 21 23 23 23 22 22 24 26 26 23 26 23 24 26 29 28 30 30 29 30 28 26 26 29 30 29 28 28 27 27 27 28 27 26 25 25 25 27 27 27 27 26 26 26
22 23 23 24 21 21 21 27 25 24 22 26 28 28 28 28 31 31 31 31 30 29 27 28 30 31 30 29 27 26 29 29 28 25 26 25 25 25 25 27 27 28 27 26 25
24 24 23 23 22 20 27 27 25 25 26 30 29 32 29 30 32 32 32 32 30 31 30 31 31 31 30 30 29 29 29 28 27 24 25 25 24 25 24 25 26 28 28 28 27
24 24 22 21 21 27 28 27 26 25 28 30 31 31 31 31 32 32 33 32 32 31 31 29 31 30 31 31 31 30 28 26 24 21 23 24 24 25 24 26 27 27 29 29 29
24 24 21 21 24 27 29 25 24 26 30 31 31 30 30 30 31 32 32 30 29 29 28 29 30 31 32 29 28 27 25 23 24 23 25 22 23 24 27 28 27 28 28 29 27
25 24 24 25 27 26 28 24 27 29 29 30 30 28 29 28 30 30 29 28 29 28 25 28 29 29 31 29 28 26 26 26 30 25 26 24 26 28 27 26 27 29 27 26 26
25 23 23 26 26 26 23 24 27 27 30 29 30 30 30 29 31 29 27 27 28 27 28 26 29 31 32 32 31 28 28 26 23 23 25 24 25 26 28 26 26 26 26 25 24
23 22 24 27 28 25 22 24 26 28 30 29 31 30 29 30 29 28 27 29 30 28 28 29 29 30 33 33 30 30 26 28 24 28 28 25 24 24 28 28 25 25 25 25 25
23 22 26 27 28 22 24 24 27 29 30 31 30 30 30 30 28 28 29 30 30 29 28 27 28 29 31 32 30 28 28 25 24 24 25 25 24 23 27 27 25 25 25 24 24
15 24 25 25 24 18 23 25 27 29 29 30 30 30 30 29 29 28 28 31 31 28 28 27 25 27 29 32 30 27 30 27 26 27 23 25 25 28 26 27 26 25 24 23 24
13 15 25 25 24 23 24 28 28 28 28 29 30 30 29 29 30 29 31 32 30 28 28 26 26 27 28 29 29 30 29 28 23 22 23 26 26 25 25 26 26 26 24 22 23
15 21 21 21 20 25 24 26 27 28 29 28 29 29 28 28 28 29 30 31 30 30 26 26 23 27 27 29 29 31 30 28 26 25 23 24 28 27 27 26 26 26 26 23 24
15 19 19 21 22 22 24 25 27 28 27 27 29 28 29 27 27 28 28 29 31 27 29 28 28 27 28 30 31 30 31 30 28 28 29 29 26 26 26 26 26 26 25 25 24
14 13 14 17 18 23 23 26 26 28 26 30 28 29 29 26 26 30 29 28 31 29 29 25 28 29 30 29 30 31 30 29 29 27 28 25 28 26 25 25 26 26 25 25 24
12 13 13 16 18 23 23 25 27 26 29 29 30 28 28 28 27 26 26 24 28 29 28 25 25 26 29 27 28 30 29 28 29 28 27 28 27 25 26 27 26 25 26 24 24
Height
787 785 782 781 779 778 778 779 779 779 779 780 781 781 780 778 776 776 775 771 770 774 777 778 780 781 784 787 786 784 804 811 798 793 787 773 781 780 782 792 794 794 799 804 809
786 783 781 779 778 776 777 777 778 778 778 779 779 780 778 775 773 771 768 769 774 777 778 777 778 778 785 787 789 793 811 799 784 780 780 776 777 782 792 797 803 801 802 807 810
785 781 779 777 776 776 776 776 776 777 777 778 778 778 776 773 774 765 763 769 771 773 774 773 772 777 789 790 792 793 804 792 783 777 772 778 780 780 794 802 799 801 802 808 811
782 779 776 775 774 774 774 774 775 776 776 777 777 777 775 774 787 766 761 766 769 771 770 772 778 789 798 799 792 797 788 791 785 773 773 780 777 791 791 795 791 799 804 809 814
780 776 774 773 772 772 772 773 773 774 775 776 777 776 774 775 772 769 765 765 767 767 764 770 782 790 801 796 792 795 792 787 785 776 778 776 786 792 800 796 799 804 809 810 813
778 774 772 771 770 770 771 771 772 773 774 776 776 776 775 778 767 767 765 767 767 768 769 770 779 784 794 800 801 794 793 791 786 787 785 792 795 794 804 799 804 807 810 812 815
777 773 771 769 768 768 769 770 771 773 774 775 777 777 776 769 765 767 767 769 772 771 775 776 780 784 791 798 792 795 802 795 794 793 795 792 805 809 802 802 807 811 813 814 817
776 773 770 768 767 768 769 770 771 772 773 774 776 777 777 765 766 767 767 772 774 773 773 779 779 786 796 796 797 807 812 825 802 796 795 799 824 810 806 806 811 812 813 815 816
776 772 769 768 767 768 769 770 771 773 774 775 776 777 777 769 769 764 765 768 774 775 778 778 780 795 798 804 819 816 828 823 810 796 797 804 821 809 805 809 811 812 813 814 815
775 771 769 768 768 768 769 770 772 773 775 776 777 781 770 766 757 759 766 769 775 778 783 785 794 809 810 815 832 820 821 812 815 802 797 808 812 808 805 807 808 809 810 811 810
775 771 769 769 769 769 770 772 777 779 775 769 766 765 759 756 754 760 763 769 773 780 796 796 808 816 810 804 794 800 807 809 801 798 802 808 807 806 804 806 806 807 807 806 805
776 772 770 770 769 770 772 771 767 769 775 757 759 761 758 758 763 754 763 774 777 793 793 805 813 787 791 791 794 797 804 797 799 796 800 803 808 800 798 798 796 801 803 800 799
778 774 771 770 769 771 770 768 766 767 778 761 758 758 756 756 762 757 754 765 776 790 794 804 786 774 785 791 800 803 801 800 799 797 802 812 819 810 796 794 794 793 794 794 794
779 775 772 770 773 769 768 765 765 765 795 774 761 750 750 751 761 744 744 757 772 786 792 789 772 776 783 791 795 815 782 788 801 816 829 813 840 812 802 797 793 790 791 790 790
777 773 770 769 768 768 765 764 761 764 819 762 758 740 744 756 750 748 741 750 774 775 779 783 776 778 786 783 781 790 775 791 808 825 823 819 831 809 799 802 790 783 782 784 782
774 767 765 766 766 762 762 760 761 799 810 769 751 755 759 753 752 747 749 747 752 771 773 779 763 771 773 768 769 773 792 809 823 843 855 831 832 814 806 789 781 777 772 772 775
767 759 758 760 760 760 759 759 801 815 765 773 765 759 763 768 763 759 764 773 787 802 804 786 778 764 759 784 782 787 812 856 862 865 850 829 832 810 779 770 769 767 763 763 767
762 756 753 754 758 760 760 780 808 782 775 751 756 765 774 770 768 766 774 787 773 781 809 809 811 777 758 772 788 799 807 830 828 851 836 820 822 793 768 760 752 750 754 758 763
760 755 753 752 755 759 770 805 796 783 761 763 759 771 774 768 765 772 781 785 772 774 800 811 802 760 754 754 763 794 805 796 828 837 837 825 805 777 761 762 760 759 759 760 764
759 756 753 752 754 761 785 800 784 763 754 757 769 767 784 772 776 778 783 758 762 758 759 778 801 770 754 748 762 773 782 811 820 833 835 830 823 812 773 768 768 766 767 768 765
761 763 756 756 759 770 794 791 771 754 750 756 762 769 766 767 770 776 769 753 745 754 757 775 787 785 765 770 780 788 797 803 810 821 836 839 825 777 768 764 766 764 764 768 767
772 779 763 762 778 791 789 774 758 758 749 750 751 758 762 762 767 769 769 748 730 743 768 764 789 801 783 755 759 772 775 789 818 820 823 820 810 753 760 759 760 758 763 766 764
788 783 764 766 792 790 774 764 757 759 757 756 758 753 754 762 769 755 747 728 729 740 751 759 789 809 798 778 767 773 771 770 795 809 821 818 806 763 762 760 758 757 759 766 766
787 790 774 770 776 778 783 773 768 749 750 750 750 750 760 769 758 757 750 734 727 727 731 740 783 785 807 787 773 774 770 771 782 806 812 805 780 770 762 761 760 756 756 763 765
790 792 792 795 784 782 778 773 770 765 750 749 748 756 763 778 771 760 750 741 726 733 735 744 771 773 769 763 759 765 765 763 771 770 779 764 779 769 759 760 757 755 759 764 768
804 809 800 796 787 781 777 773 770 759 759 747 752 750 756 772 768 758 750 750 741 736 741 747 767 759 767 759 756 763 761 760 753 760 760 769 766 757 756 753 757 757 760 765 770
811 810 808 796 791 783 782 771 762 760 741 736 739 752 754 745 739 743 738 745 737 743 749 758 769 778 780 773 768 778 761 757 753 750 760 769 756 754 760 757 760 762 761 767 772
Wind_Speed
17 15 13 11 10 8 7 6 6 5 5 3 3 3 4 6 8 6 6 5 6 7 6 6 4 7 2 3 4 2 3 3 5 2 3 11 6 3 6 11 1 4 5 17 22
19 17 14 12 10 8 6 5 6 5 4 3 2 2 5 9 8 9 7 5 2 7 5 11 5 7 3 3 2 2 4 8 12 10 5 8 7 8 5 6 4 8 16 24 22
20 18 15 12 10 9 7 5 5 5 4 2 2 2 4 7 2 3 5 10 12 13 13 14 13 6 5 4 4 2 3 9 8 11 2 8 9 4 9 3 5 18 19 15 16
23 18 15 12 9 8 7 5 4 5 3 1 0 0 4 2 1 9 23 19 21 17 15 13 6 5 1 1 3 1 1 4 11 17 2 5 5 5 2 1 11 15 17 11 8
24 19 15 12 9 7 7 4 3 3 3 1 2 1 1 1 3 16 23 21 19 22 16 11 7 4 6 3 6 6 7 4 10 13 11 12 8 5 8 12 13 14 11 9 11
23 18 15 12 8 6 5 4 3 3 3 1 3 3 1 1 5 26 22 24 24 16 6 9 7 5 5 4 2 5 6 8 10 11 7 8 4 4 5 12 12 12 6 7 9
24 18 14 11 8 5 3 3 2 2 1 1 3 2 1 4 9 26 22 23 11 6 4 7 10 5 2 6 2 6 10 9 7 5 3 5 5 4 10 11 12 9 8 9 8
25 19 14 9 6 3 2 0 1 2 3 3 4 3 4 0 24 25 21 20 8 13 16 14 15 9 3 2 4 4 1 3 3 5 4 5 1 6 10 11 11 9 8 8 8
27 19 13 9 5 4 3 4 5 5 4 5 3 2 2 8 15 23 27 15 11 9 15 10 6 4 2 5 3 4 2 2 3 2 1 4 3 10 11 9 10 9 8 9 8
27 20 13 7 5 4 7 8 9 7 6 3 1 2 2 7 10 27 21 20 6 10 5 5 5 3 3 3 3 2 2 2 1 2 1 2 5 13 14 11 11 9 10 10 10
27 17 11 5 3 6 9 6 3 3 3 7 6 3 3 2 10 15 24 13 5 4 4 2 2 5 9 6 7 9 9 5 2 1 2 2 4 17 15 12 9 8 9 11 13
33 17 8 3 1 4 3 2 5 2 6 11 4 6 6 5 3 5 23 6 5 5 6 3 6 10 5 6 6 7 4 3 4 2 4 1 9 15 16 18 15 12 10 12 13
32 23 8 3 1 3 5 8 7 14 1 5 6 5 6 10 7 8 18 8 5 6 6 6 6 4 8 9 7 5 6 3 0 4 5 5 4 6 14 13 10 10 10 11 13
36 30 11 3 1 2 5 0 13 6 4 5 3 6 6 6 4 9 19 7 4 9 9 7 4 3 5 6 10 5 16 9 4 2 3 2 4 6 8 16 17 16 14 15 14
39 35 15 8 2 3 2 17 2 4 5 2 3 5 2 8 5 4 6 4 7 7 5 7 7 4 5 7 7 7 11 12 4 2 2 5 1 5 4 9 13 19 19 19 20
41 35 12 7 10 11 12 12 5 6 4 4 3 3 5 2 2 2 4 5 2 4 2 7 3 5 5 2 4 13 11 8 6 5 4 4 2 5 4 8 3 8 17 18 18
42 27 9 11 3 2 17 3 5 4 3 2 3 1 2 4 2 3 3 4 6 3 5 5 4 4 3 9 4 8 7 3 2 2 5 5 2 8 6 6 8 14 18 16 10
42 15 4 17 13 9 4 5 3 5 7 4 2 4 7 6 5 2 2 4 2 5 3 3 6 6 5 9 10 7 6 4 4 4 4 5 5 5 5 9 15 14 15 12 10
36 9 6 2 18 2 5 3 6 5 4 7 2 4 2 5 5 5 8 8 9 8 8 5 5 3 3 6 7 6 5 1 6 0 1 3 6 8 3 6 6 4 7 9 8
19 10 4 4 14 6 5 3 4 5 6 1 1 4 5 4 6 7 8 6 7 10 5 5 1 4 5 3 6 6 7 1 3 2 4 4 5 6 4 5 4 5 6 3 4
7 4 7 17 8 5 2 6 6 5 5 2 2 2 4 3 6 6 8 4 7 6 8 5 4 6 1 3 6 2 3 5 5 3 5 2 6 7 8 6 7 6 5 7 6
7 3 1 7 3 1 2 5 3 2 4 3 1 2 4 4 4 6 5 8 8 10 12 8 5 5 10 3 3 4 8 6 5 5 3 1 6 1 5 4 6 6 6 6 6
2 3 2 3 1 3 5 5 4 3 2 2 1 3 2 4 4 4 1 6 7 11 13 9 3 2 10 6 3 2 6 4 6 4 5 5 6 3 3 3 8 8 6 6 6
2 4 4 3 1 0 5 5 6 4 2 2 3 6 5 5 0 4 2 3 6 3 11 9 5 8 8 6 4 2 5 5 6 4 5 6 1 4 7 8 6 6 5 6 5
3 1 1 3 3 3 3 2 3 4 1 4 5 4 3 3 7 5 2 4 5 6 4 4 7 6 4 5 4 6 5 8 7 7 7 8 8 7 8 9 8 7 6 4 6
3 4 6 3 4 5 2 5 4 4 4 2 3 9 0 6 10 6 2 3 0 5 3 3 2 2 4 4 1 5 7 8 5 5 3 7 3 3 2 6 5 7 9 6 6
9 5 1 4 5 2 3 4 5 11 6 5 4 6 15 15 10 10 5 3 3 2 1 3 5 3 3 3 5 4 4 4 2 4 5 6 7 8 5 9 9 7 9 9 7
Wind_Direction
351 345 337 331 322 311 302 303 306 309 308 315 329 346 318 300 290 254 230 218 185 153 80 100 13 311 7 62 330 319 51 21 7 308 69 121 121 49 93 135 24 181 129 141 148
348 343 336 331 324 315 307 301 299 294 302 318 337 358 316 307 293 248 260 172 135 134 84 74 42 32 41 23 11 78 58 0 313 9 180 151 126 132 112 128 59 92 109 134 148
348 342 335 331 323 318 308 299 290 285 291 311 343 351 312 314 306 260 322 163 133 125 136 118 117 77 13 17 334 73 76 350 321 321 233 146 113 89 122 211 193 155 142 144 141
349 342 335 330 322 316 310 298 292 281 279 280 185 10 305 324 52 2 137 141 138 145 133 127 86 89 25 290 282 338 79 86 323 318 250 112 90 90 17 62 119 141 138 139 144
349 343 338 334 326 318 316 300 280 271 260 214 162 162 179 276 247 136 140 143 152 166 153 134 117 123 136 348 331 19 10 33 333 14 48 88 87 89 96 104 111 123 141 161 163
354 348 340 338 331 318 304 298 270 256 246 189 151 160 244 93 166 154 159 149 154 156 62 34 139 150 107 72 20 10 7 340 350 324 1 94 103 81 123 122 122 143 176 185 175
359 352 345 339 335 319 288 275 263 208 200 159 136 113 337 203 195 159 166 165 133 58 69 93 122 90 301 103 35 111 352 352 325 9 93 6 20 89 147 142 143 168 197 204 212
357 352 347 347 343 344 343 352 121 133 147 142 132 123 240 325 164 164 170 160 122 72 97 116 108 98 32 337 68 49 286 334 58 358 47 68 111 156 168 156 168 183 206 207 229
356 353 351 354 21 39 74 97 100 107 120 128 96 118 245 145 182 185 176 164 112 75 71 104 71 67 72 127 120 170 251 206 328 74 98 79 121 190 182 185 185 188 203 211 231
356 353 356 18 55 97 119 119 113 117 122 97 356 20 214 219 193 195 182 152 123 122 87 47 57 78 22 108 166 179 104 262 253 251 65 57 206 181 193 196 198 200 197 208 223
360 359 1 30 95 139 125 113 45 36 225 191 197 234 301 200 167 170 191 151 112 85 135 131 81 224 213 185 166 114 132 208 231 14 242 145 213 184 196 205 207 218 203 211 218
7 359 4 17 138 152 145 132 197 143 305 222 215 290 278 282 328 207 157 174 163 202 119 68 238 237 197 175 150 133 157 243 164 202 160 167 184 184 190 209 205 202 223 219 234
7 3 352 4 135 180 221 246 221 337 166 299 188 194 203 163 203 236 159 173 173 185 184 171 235 145 155 176 176 205 209 177 67 101 64 40 293 211 208 219 215 216 218 237 224
1 355 333 322 337 246 247 240 334 229 62 286 260 271 157 155 232 212 184 144 187 212 156 239 283 179 185 191 171 218 217 171 115 43 184 176 248 219 196 211 217 218 210 237 240
354 347 330 241 273 230 85 331 8 132 43 350 215 165 130 153 165 241 180 77 177 199 128 250 313 306 228 219 151 247 176 155 95 335 357 342 107 263 154 218 218 212 208 215 234
348 338 314 239 243 260 314 348 125 35 359 357 183 156 117 359 312 69 164 84 175 151 257 252 284 163 207 88 122 112 90 51 46 39 329 251 196 290 191 223 224 211 210 208 214
344 336 259 194 215 179 339 41 36 101 321 337 174 253 125 167 226 148 171 143 175 132 273 333 247 261 159 81 15 77 79 81 335 187 233 212 82 242 257 236 218 208 206 201 188
345 345 280 213 224 286 355 53 74 234 250 270 196 105 172 160 236 243 90 241 231 121 112 154 325 173 197 168 180 185 162 165 203 194 249 207 235 245 238 292 246 216 178 165 167
345 336 300 337 218 200 75 78 211 220 284 333 35 91 220 230 166 146 195 215 209 169 175 147 274 291 221 190 146 191 206 159 108 119 311 267 290 295 298 346 355 131 142 157 137
342 329 322 347 150 139 74 245 252 226 309 51 170 137 201 217 164 166 193 219 223 177 155 210 322 226 278 98 63 172 160 136 11 123 294 285 292 238 265 271 280 196 174 150 118
7 18 0 132 130 50 149 229 250 276 300 267 106 284 191 219 202 193 225 256 207 169 133 139 121 258 360 181 171 87 282 48 111 133 177 223 260 216 210 209 230 217 180 157 209
357 19 29 155 47 30 223 208 283 302 305 326 59 198 222 200 217 195 220 223 174 152 166 194 155 239 238 234 101 196 188 149 127 237 246 173 277 290 162 211 233 234 163 172 192
27 272 68 271 253 287 280 281 224 336 260 106 307 122 35 275 246 254 153 270 316 170 168 176 225 303 333 352 70 184 219 135 105 97 200 152 259 22 137 249 237 222 155 176 180
42 359 330 54 94 315 1 306 312 299 163 335 224 76 24 316 303 273 245 284 289 76 106 100 130 165 199 211 144 166 255 179 149 139 177 228 296 218 191 183 182 186 132 153 168
27 341 89 304 322 339 238 251 293 294 220 261 59 134 122 307 316 258 224 282 17 12 73 119 174 172 179 138 150 210 245 238 175 188 166 225 176 221 170 169 180 165 122 132 137
34 16 347 290 302 317 359 217 236 277 245 286 90 299 279 226 207 288 165 290 47 357 77 347 172 171 114 27 202 211 225 275 215 167 68 109 120 166 74 92 117 142 141 141 131
360 351 96 290 326 350 256 310 292 315 242 210 271 322 306 257 230 240 166 179 158 218 72 65 120 86 257 349 278 298 299 284 45 102 140 144 204 146 133 151 163 145 130 132 135